View from above orbital plane
|
View from above satellite
|
Ground track
|
The orbit data is extracted from the following two-line orbital elements,
1 28932U 06002B 21102.77777664 .00000281 00000-0 31758-4 0 9998
2 28932 98.3314 115.9483 0089553 62.8497 109.3123 14.92502549825893
Epoch (UTC): | 12 April 2021 18:39:59 |
Eccentricity: | 0.0089553 |
inclination: | 98.3314° |
perigee height: | 528 km |
apogee height: | 652 km |
right ascension of ascending node: | 115.9483° |
argument of perigee: | 62.8497° |
revolutions per day: | 14.92502549 |
mean anomaly at epoch: | 109.3123° |
orbit number at epoch: | 82589 |
The dashed part of the orbit path shows where the satellite is in the earth's shadow,
|
|